Regional Weather Roundup
Issued by NWS Little Rock, AR

Home | Current Version | Previous Version | Graphics & Text | Print | Product List | Glossary On
Versions: 1 2 3 4 5 6 7 8 9 10 11 12 13 14 15 16 17 18 19 20 21 22 23 24 25 26 27
000
ASUS44 KLZK 300405
RWRLZK

WEATHER ROUNDUP FOR ARKANSAS
NATIONAL WEATHER SERVICE LITTLE ROCK AR
1100 PM CDT SUN MAY 29 2016

NOTE: "FAIR" INDICATES FEW OR NO CLOUDS BELOW 12,000 FEET WITH NO
SIGNIFICANT WEATHER AND/OR OBSTRUCTIONS TO VISIBILITY.

ARZ001-003-010-029-300500-
NORTHWEST ARKANSAS

CITY           SKY/WX    TMP DP  RH WIND       PRES   REMARKS
FAYETTEVILLE   CLOUDY    63  63 100 CALM      30.11R
FORT SMITH     CLOUDY    78  67  68 S3        30.08R
HARRISON       CLOUDY    68  63  84 CALM      30.11R
BENTONVILLE    CLOUDY    70  59  68 CALM      30.11R
ROGERS           N/A     68  65  90 S6        30.12R
SILOAM SPGS    CLOUDY    63  54  72 CALM      30.12R
HIGHFILL       MOCLDY    69  62  78 SW3       30.11R
$$

ARZ004-005-016-300500-
NORTH CENTRAL ARKANSAS

CITY           SKY/WX    TMP DP  RH WIND       PRES   REMARKS
BATESVILLE     CLEAR     70  66  88 CALM      30.09R
FLIPPIN        CLEAR    N/A N/A N/A CALM      30.07R
MTN HOME       CLOUDY    71  64  78 CALM      30.09R
$$

ARZ040-041-300500-
WEST CENTRAL ARKANSAS

CITY           SKY/WX    TMP DP  RH WIND       PRES   REMARKS
MENA           CLOUDY    73  64  73 CALM      30.16R
MOUNT IDA      CLOUDY    68  66  93 W5        30.12R FOG
$$

ARZ009-017-025-026-028-300500-
NORTHEAST ARKANSAS

CITY           SKY/WX    TMP DP  RH WIND       PRES   REMARKS
CORNING          N/A     75  73  94 NW3       30.07S
JONESBORO      CLEAR     74  69  85 NW3       30.05F
NEWPORT        PTCLDY    76  74  93 SW6       30.08R
WALNUT RIDGE   CLEAR     75  66  73 CALM      30.06F
BLYTHEVILLE    CLEAR     76  71  85 W5        30.06R
$$

ARZ022-023-033-042-044-300500-
CENTRAL ARKANSAS

CITY           SKY/WX    TMP DP  RH WIND       PRES   REMARKS
LITTLE ROCK    PTCLDY    67  63  87 CALM      30.09R
N LITTLE ROCK    N/A     67  62  83 CALM      30.06F
JACKSONVILLE   MOCLDY    67  66  97 NE2       30.08R
SEARCY         CLEAR     70  70 100 S3        30.10R
HOT SPRINGS    MOCLDY    68  66  93 CALM      30.11R
RUSSELLVILLE   CLOUDY    72  67  84 CALM      30.09R
CLINTON        FAIR      68  68 100 CALM      30.10R
$$

ARZ036-300500-
EAST ARKANSAS

CITY           SKY/WX    TMP DP  RH WIND       PRES   REMARKS
WEST MEMPHIS   CLOUDY    74  71  91 S3        30.05S
$$

ARZ050-053-066-070-073-300500-
SOUTHWEST ARKANSAS

CITY           SKY/WX    TMP DP  RH WIND       PRES   REMARKS
ARKADELPHIA    FAIR      68  68 100 CALM      30.11R
CAMDEN         CLOUDY    68  63  83 CALM      30.09R
TEXARKANA      LGT RAIN  71  63  75 E7        30.14R
EL DORADO      CLOUDY    71  63  75 S5        30.11R
DE QUEEN       RAIN      68  65  90 S7        30.13S FOG
$$

ARZ056-057-069-300500-
SOUTHEAST ARKANSAS

CITY           SKY/WX    TMP DP  RH WIND       PRES   REMARKS
PINE BLUFF     PTCLDY    68  64  87 NW3       30.07R
STUTTGART      CLEAR     68  63  83 N6        30.09R
MONTICELLO     CLOUDY    70  63  78 VRB5      30.07R

$$






USA.gov is the U.S. government's official web portal to all federal, state and local government web resources and services.